GEFSSE_prec_meanprecacc_096.txt.gz
Total_Precipitation_Accumulation
0.02 0.01 0.02 0.02 0.02 0.01 0.01 0.02 0.06 0.09 0.11 0.13 0.15 0.15 0.15 0.13 0.12 0.12 0.11 0.11 0.11 0.15 0.19 0.25 0.26 0.29 0.32 0.30 0.21 0.13 0.10 0.09 0.07 0.06 0.05 0.07 0.08 0.10 0.13 0.11 0.09 0.08 0.05
0.02 0.01 0.02 0.02 0.02 0.02 0.01 0.02 0.05 0.08 0.10 0.11 0.11 0.11 0.12 0.12 0.12 0.13 0.13 0.14 0.15 0.18 0.19 0.20 0.23 0.26 0.26 0.21 0.16 0.10 0.07 0.06 0.08 0.11 0.14 0.19 0.24 0.22 0.23 0.20 0.17 0.13 0.05
0.02 0.00 0.01 0.02 0.03 0.03 0.03 0.03 0.04 0.08 0.11 0.13 0.13 0.11 0.09 0.09 0.09 0.10 0.11 0.14 0.19 0.23 0.22 0.19 0.19 0.19 0.18 0.14 0.09 0.06 0.05 0.06 0.11 0.17 0.34 0.45 0.47 0.40 0.37 0.32 0.30 0.18 0.07
0.02 0.00 0.01 0.01 0.03 0.05 0.04 0.05 0.05 0.08 0.12 0.17 0.18 0.16 0.13 0.10 0.10 0.12 0.12 0.14 0.19 0.22 0.19 0.15 0.13 0.12 0.09 0.06 0.05 0.04 0.04 0.07 0.14 0.23 0.48 0.49 0.47 0.41 0.34 0.33 0.39 0.34 0.25
0.02 0.01 0.01 0.01 0.02 0.05 0.07 0.07 0.08 0.11 0.15 0.20 0.23 0.24 0.19 0.12 0.10 0.14 0.16 0.16 0.18 0.21 0.22 0.17 0.11 0.07 0.05 0.04 0.03 0.03 0.04 0.08 0.17 0.35 0.60 0.71 0.65 0.56 0.41 0.34 0.37 0.42 0.41
0.02 0.01 0.01 0.02 0.03 0.06 0.08 0.10 0.12 0.15 0.18 0.24 0.29 0.27 0.20 0.13 0.12 0.15 0.19 0.22 0.22 0.25 0.28 0.24 0.21 0.14 0.08 0.05 0.04 0.04 0.07 0.13 0.21 0.47 0.69 0.84 0.70 0.59 0.42 0.32 0.31 0.41 0.44
0.03 0.01 0.01 0.02 0.03 0.07 0.09 0.10 0.12 0.16 0.21 0.27 0.31 0.27 0.20 0.14 0.13 0.15 0.21 0.24 0.27 0.29 0.27 0.23 0.20 0.15 0.12 0.11 0.10 0.12 0.16 0.23 0.32 0.52 0.70 0.66 0.63 0.50 0.38 0.32 0.26 0.25 0.30
0.05 0.02 0.01 0.02 0.04 0.11 0.17 0.12 0.11 0.15 0.19 0.25 0.29 0.26 0.19 0.15 0.17 0.21 0.22 0.25 0.27 0.24 0.19 0.18 0.16 0.14 0.15 0.18 0.19 0.21 0.24 0.27 0.29 0.43 0.55 0.57 0.43 0.32 0.33 0.33 0.27 0.20 0.20
0.12 0.07 0.03 0.02 0.02 0.06 0.09 0.09 0.10 0.11 0.15 0.20 0.25 0.29 0.23 0.18 0.26 0.29 0.27 0.27 0.30 0.24 0.18 0.17 0.18 0.15 0.19 0.24 0.20 0.18 0.18 0.18 0.17 0.24 0.38 0.54 0.34 0.26 0.25 0.23 0.19 0.17 0.16
0.34 0.41 0.18 0.10 0.05 0.03 0.03 0.05 0.07 0.08 0.10 0.13 0.15 0.17 0.17 0.19 0.23 0.25 0.22 0.20 0.21 0.16 0.12 0.11 0.12 0.12 0.10 0.09 0.06 0.04 0.05 0.05 0.08 0.14 0.26 0.33 0.32 0.28 0.23 0.18 0.14 0.13 0.13
0.60 0.77 0.53 0.20 0.06 0.05 0.05 0.03 0.05 0.04 0.06 0.06 0.06 0.08 0.12 0.21 0.26 0.25 0.15 0.12 0.09 0.06 0.04 0.03 0.02 0.02 0.01 0.01 0.02 0.03 0.03 0.02 0.07 0.13 0.25 0.33 0.33 0.29 0.26 0.20 0.15 0.12 0.11
0.72 0.66 0.51 0.15 0.06 0.05 0.05 0.05 0.06 0.05 0.05 0.05 0.08 0.07 0.14 0.30 0.34 0.24 0.18 0.10 0.05 0.03 0.02 0.02 0.02 0.02 0.01 0.01 0.02 0.02 0.02 0.03 0.07 0.12 0.19 0.28 0.30 0.30 0.29 0.23 0.17 0.15 0.14
0.72 0.39 0.22 0.17 0.12 0.07 0.07 0.07 0.09 0.10 0.11 0.10 0.14 0.12 0.21 0.23 0.15 0.12 0.13 0.10 0.07 0.06 0.06 0.07 0.04 0.03 0.03 0.02 0.03 0.04 0.04 0.05 0.08 0.09 0.12 0.20 0.25 0.32 0.32 0.26 0.20 0.19 0.19
0.60 0.40 0.25 0.21 0.17 0.13 0.12 0.10 0.10 0.10 0.11 0.11 0.14 0.12 0.19 0.22 0.19 0.19 0.21 0.18 0.17 0.16 0.15 0.11 0.08 0.08 0.07 0.07 0.08 0.12 0.13 0.11 0.11 0.10 0.14 0.17 0.22 0.31 0.36 0.33 0.31 0.29 0.26
0.78 0.61 0.37 0.30 0.23 0.18 0.19 0.16 0.09 0.09 0.10 0.13 0.16 0.15 0.16 0.17 0.19 0.24 0.23 0.22 0.21 0.23 0.22 0.18 0.13 0.15 0.16 0.16 0.16 0.15 0.15 0.17 0.19 0.22 0.20 0.22 0.24 0.29 0.37 0.40 0.40 0.38 0.37
1.06 0.83 0.45 0.32 0.22 0.18 0.17 0.15 0.14 0.14 0.18 0.22 0.26 0.21 0.18 0.22 0.29 0.29 0.28 0.28 0.23 0.25 0.31 0.35 0.30 0.26 0.22 0.24 0.20 0.19 0.23 0.25 0.26 0.30 0.34 0.39 0.37 0.32 0.36 0.43 0.47 0.46 0.46
1.31 1.09 0.62 0.35 0.32 0.28 0.23 0.20 0.21 0.25 0.29 0.29 0.34 0.31 0.27 0.25 0.33 0.35 0.40 0.37 0.32 0.32 0.37 0.37 0.37 0.36 0.34 0.36 0.32 0.30 0.30 0.27 0.27 0.30 0.37 0.41 0.40 0.37 0.40 0.45 0.46 0.48 0.50
1.81 1.54 0.88 0.46 0.47 0.44 0.39 0.35 0.33 0.33 0.38 0.37 0.39 0.39 0.36 0.37 0.47 0.52 0.55 0.54 0.52 0.50 0.57 0.60 0.58 0.56 0.55 0.52 0.49 0.43 0.39 0.36 0.33 0.35 0.41 0.45 0.47 0.48 0.51 0.49 0.45 0.44 0.44
2.39 2.02 1.21 0.77 0.74 0.70 0.66 0.64 0.67 0.66 0.65 0.66 0.68 0.67 0.63 0.64 0.69 0.75 0.81 0.84 0.83 0.88 0.86 0.79 0.82 0.84 0.83 0.74 0.60 0.52 0.45 0.44 0.43 0.43 0.46 0.48 0.49 0.52 0.50 0.46 0.45 0.45 0.46
2.71 2.41 1.83 1.35 1.23 1.14 1.05 1.05 1.07 1.10 1.13 1.13 1.12 1.09 1.01 1.00 1.02 1.15 1.20 1.21 1.20 1.22 1.19 1.19 1.13 0.93 0.78 0.70 0.57 0.50 0.47 0.43 0.42 0.39 0.39 0.37 0.36 0.39 0.46 0.49 0.48 0.45 0.46
2.06 1.98 1.96 1.84 1.67 1.53 1.48 1.48 1.61 1.75 1.77 1.71 1.68 1.61 1.62 1.68 1.75 1.84 1.80 1.71 1.58 1.54 1.48 1.34 1.14 0.95 0.79 0.70 0.65 0.58 0.47 0.37 0.34 0.33 0.34 0.36 0.35 0.34 0.37 0.42 0.40 0.33 0.30
1.91 2.01 1.99 1.87 1.92 2.03 2.22 2.44 2.60 2.74 2.70 2.60 2.53 2.47 2.43 2.36 2.25 2.17 2.07 1.91 1.75 1.63 1.46 1.32 1.19 1.08 0.97 0.85 0.74 0.69 0.56 0.42 0.30 0.23 0.23 0.22 0.22 0.20 0.21 0.22 0.22 0.24 0.24
1.64 1.87 1.96 2.11 2.46 2.78 3.14 3.61 3.87 3.67 3.45 3.37 3.17 3.09 2.91 2.66 2.47 2.33 2.10 1.94 1.77 1.58 1.44 1.32 1.20 1.13 1.02 0.87 0.76 0.70 0.59 0.48 0.35 0.23 0.18 0.16 0.15 0.15 0.15 0.16 0.18 0.20 0.22
1.50 1.84 2.09 2.40 2.84 3.34 3.74 4.08 4.30 4.23 4.01 3.83 3.45 3.14 2.78 2.46 2.27 2.08 1.91 1.76 1.63 1.48 1.32 1.18 1.11 1.02 0.91 0.78 0.66 0.57 0.50 0.43 0.39 0.30 0.19 0.14 0.13 0.14 0.14 0.15 0.16 0.17 0.18
1.34 1.72 2.04 2.37 2.89 3.38 3.80 4.11 4.33 4.40 4.22 3.83 3.22 2.67 2.33 2.09 1.91 1.70 1.49 1.36 1.27 1.16 1.02 0.87 0.77 0.67 0.60 0.52 0.47 0.43 0.41 0.36 0.33 0.34 0.28 0.19 0.15 0.13 0.13 0.13 0.12 0.12 0.13
1.13 1.44 1.71 2.02 2.65 3.25 3.69 4.02 4.31 4.29 3.94 3.38 2.77 2.25 1.94 1.75 1.60 1.43 1.26 1.08 0.94 0.79 0.64 0.52 0.45 0.40 0.37 0.34 0.31 0.28 0.25 0.25 0.25 0.27 0.27 0.21 0.16 0.12 0.10 0.10 0.10 0.10 0.11

GEFSSE_prec_meanprecacc_102.txt.gz
Total_Precipitation_Accumulation
0.02 0.01 0.02 0.02 0.02 0.02 0.01 0.03 0.06 0.09 0.11 0.13 0.15 0.15 0.15 0.13 0.12 0.12 0.11 0.11 0.11 0.15 0.20 0.25 0.27 0.30 0.33 0.32 0.22 0.13 0.10 0.09 0.07 0.06 0.05 0.07 0.08 0.10 0.13 0.11 0.10 0.08 0.05
0.02 0.01 0.02 0.02 0.03 0.02 0.02 0.02 0.05 0.08 0.10 0.11 0.11 0.11 0.12 0.12 0.12 0.13 0.13 0.14 0.15 0.18 0.19 0.20 0.24 0.27 0.27 0.22 0.16 0.10 0.07 0.06 0.08 0.11 0.16 0.21 0.25 0.23 0.23 0.20 0.17 0.14 0.05
0.02 0.00 0.01 0.02 0.03 0.04 0.03 0.03 0.04 0.08 0.11 0.13 0.13 0.11 0.09 0.09 0.09 0.10 0.11 0.14 0.20 0.23 0.22 0.20 0.19 0.19 0.19 0.14 0.10 0.06 0.05 0.07 0.12 0.19 0.35 0.48 0.48 0.41 0.37 0.33 0.30 0.19 0.08
0.02 0.01 0.01 0.01 0.03 0.05 0.05 0.05 0.05 0.08 0.12 0.17 0.18 0.16 0.13 0.10 0.10 0.12 0.12 0.14 0.19 0.22 0.19 0.16 0.13 0.12 0.09 0.06 0.05 0.04 0.05 0.08 0.15 0.24 0.50 0.51 0.50 0.43 0.36 0.35 0.40 0.35 0.25
0.03 0.01 0.01 0.01 0.03 0.06 0.07 0.07 0.08 0.11 0.15 0.20 0.23 0.24 0.19 0.12 0.10 0.14 0.16 0.16 0.18 0.21 0.22 0.17 0.12 0.08 0.05 0.04 0.03 0.03 0.05 0.09 0.18 0.35 0.61 0.72 0.68 0.58 0.42 0.36 0.39 0.42 0.42
0.02 0.02 0.01 0.02 0.03 0.06 0.08 0.10 0.12 0.15 0.18 0.24 0.29 0.27 0.20 0.14 0.12 0.16 0.19 0.22 0.23 0.25 0.29 0.24 0.21 0.14 0.09 0.05 0.04 0.05 0.08 0.14 0.22 0.48 0.70 0.85 0.72 0.61 0.43 0.34 0.32 0.42 0.45
0.03 0.02 0.01 0.03 0.03 0.07 0.09 0.10 0.12 0.16 0.21 0.27 0.31 0.27 0.20 0.15 0.13 0.15 0.22 0.24 0.27 0.29 0.27 0.23 0.20 0.15 0.13 0.12 0.11 0.13 0.18 0.26 0.33 0.53 0.71 0.67 0.65 0.53 0.39 0.33 0.28 0.27 0.31
0.06 0.03 0.02 0.03 0.04 0.11 0.17 0.13 0.11 0.15 0.19 0.25 0.30 0.26 0.19 0.16 0.17 0.21 0.22 0.26 0.28 0.24 0.20 0.18 0.16 0.14 0.16 0.19 0.20 0.22 0.27 0.30 0.30 0.44 0.57 0.59 0.45 0.34 0.35 0.35 0.30 0.24 0.22
0.14 0.09 0.04 0.03 0.03 0.06 0.10 0.10 0.10 0.12 0.16 0.21 0.26 0.29 0.24 0.19 0.26 0.30 0.28 0.28 0.30 0.25 0.19 0.18 0.18 0.15 0.20 0.24 0.21 0.19 0.19 0.19 0.18 0.26 0.40 0.56 0.36 0.28 0.29 0.27 0.22 0.19 0.19
0.36 0.43 0.20 0.11 0.05 0.04 0.03 0.06 0.08 0.09 0.11 0.14 0.15 0.18 0.18 0.19 0.23 0.26 0.23 0.22 0.22 0.17 0.12 0.11 0.13 0.12 0.11 0.09 0.06 0.05 0.06 0.06 0.09 0.15 0.29 0.36 0.35 0.31 0.27 0.22 0.17 0.16 0.17
0.65 0.81 0.57 0.23 0.09 0.06 0.06 0.05 0.07 0.06 0.08 0.08 0.07 0.09 0.13 0.22 0.28 0.26 0.16 0.14 0.10 0.07 0.05 0.03 0.03 0.02 0.01 0.01 0.02 0.03 0.04 0.03 0.08 0.14 0.27 0.35 0.35 0.34 0.32 0.26 0.21 0.18 0.16
0.79 0.74 0.57 0.19 0.09 0.08 0.07 0.06 0.08 0.06 0.06 0.06 0.10 0.09 0.17 0.34 0.38 0.26 0.21 0.12 0.07 0.05 0.03 0.03 0.03 0.02 0.02 0.02 0.02 0.02 0.02 0.03 0.08 0.12 0.20 0.29 0.34 0.38 0.37 0.31 0.24 0.21 0.20
0.77 0.45 0.26 0.22 0.18 0.13 0.10 0.13 0.14 0.14 0.15 0.15 0.18 0.17 0.28 0.30 0.20 0.15 0.16 0.13 0.10 0.08 0.09 0.09 0.05 0.04 0.04 0.05 0.06 0.05 0.05 0.06 0.09 0.10 0.13 0.21 0.29 0.39 0.42 0.37 0.30 0.27 0.26
0.66 0.45 0.30 0.26 0.24 0.24 0.25 0.23 0.26 0.27 0.21 0.17 0.20 0.19 0.30 0.37 0.30 0.26 0.27 0.23 0.23 0.23 0.22 0.15 0.11 0.11 0.10 0.10 0.11 0.14 0.14 0.12 0.13 0.12 0.16 0.19 0.24 0.35 0.43 0.44 0.42 0.40 0.35
0.83 0.68 0.44 0.38 0.32 0.31 0.39 0.39 0.31 0.32 0.29 0.24 0.25 0.24 0.26 0.26 0.29 0.33 0.31 0.30 0.29 0.32 0.31 0.26 0.19 0.20 0.20 0.19 0.19 0.17 0.18 0.20 0.23 0.25 0.23 0.24 0.26 0.32 0.43 0.50 0.52 0.51 0.49
1.11 0.91 0.53 0.41 0.32 0.29 0.30 0.31 0.32 0.30 0.33 0.35 0.36 0.35 0.30 0.34 0.43 0.42 0.39 0.38 0.32 0.34 0.41 0.44 0.39 0.34 0.30 0.31 0.26 0.24 0.27 0.28 0.30 0.34 0.38 0.42 0.39 0.34 0.40 0.50 0.58 0.59 0.60
1.38 1.17 0.69 0.44 0.43 0.43 0.38 0.34 0.37 0.38 0.42 0.43 0.51 0.50 0.43 0.40 0.46 0.47 0.50 0.47 0.41 0.39 0.45 0.46 0.47 0.45 0.43 0.44 0.40 0.36 0.34 0.31 0.32 0.34 0.40 0.44 0.45 0.41 0.44 0.51 0.55 0.59 0.63
1.87 1.63 0.99 0.60 0.67 0.65 0.59 0.57 0.56 0.56 0.56 0.54 0.58 0.61 0.57 0.58 0.62 0.66 0.68 0.64 0.61 0.59 0.67 0.71 0.71 0.68 0.66 0.63 0.60 0.51 0.45 0.42 0.38 0.38 0.43 0.48 0.51 0.53 0.55 0.53 0.51 0.52 0.54
2.47 2.12 1.34 0.96 0.95 0.92 0.88 0.90 0.99 1.04 0.98 0.93 0.89 0.86 0.80 0.81 0.84 0.89 0.95 0.97 0.94 0.98 0.97 0.89 0.92 0.94 0.93 0.85 0.70 0.61 0.53 0.50 0.48 0.46 0.49 0.50 0.53 0.56 0.54 0.50 0.49 0.51 0.54
2.80 2.51 1.97 1.53 1.40 1.31 1.21 1.25 1.34 1.39 1.40 1.40 1.37 1.33 1.25 1.22 1.24 1.36 1.40 1.38 1.33 1.33 1.28 1.26 1.21 1.02 0.87 0.80 0.65 0.58 0.53 0.48 0.46 0.43 0.42 0.40 0.40 0.42 0.50 0.53 0.53 0.51 0.54
2.14 2.08 2.08 1.97 1.81 1.68 1.64 1.65 1.79 1.97 2.02 1.93 1.89 1.83 1.84 1.89 1.95 2.03 1.99 1.89 1.72 1.64 1.57 1.43 1.23 1.04 0.88 0.79 0.73 0.64 0.52 0.42 0.38 0.36 0.37 0.39 0.37 0.36 0.40 0.45 0.44 0.39 0.38
1.96 2.08 2.08 1.97 2.06 2.20 2.40 2.63 2.82 2.98 2.93 2.83 2.75 2.67 2.63 2.59 2.46 2.34 2.23 2.07 1.89 1.76 1.58 1.42 1.29 1.17 1.07 0.94 0.82 0.78 0.63 0.48 0.34 0.27 0.26 0.25 0.24 0.22 0.23 0.24 0.25 0.28 0.30
1.69 1.92 2.04 2.19 2.58 2.97 3.36 3.87 4.17 3.99 3.73 3.65 3.43 3.32 3.13 2.89 2.71 2.57 2.29 2.09 1.91 1.71 1.55 1.41 1.30 1.23 1.10 0.95 0.85 0.80 0.69 0.57 0.42 0.28 0.22 0.19 0.17 0.16 0.16 0.17 0.19 0.23 0.25
1.54 1.89 2.16 2.49 2.96 3.50 3.91 4.31 4.60 4.60 4.37 4.17 3.76 3.39 3.00 2.66 2.48 2.31 2.10 1.90 1.77 1.62 1.43 1.28 1.21 1.12 1.00 0.86 0.73 0.65 0.58 0.51 0.46 0.36 0.23 0.17 0.15 0.16 0.16 0.16 0.18 0.19 0.21
1.37 1.77 2.12 2.46 2.99 3.50 3.93 4.26 4.51 4.62 4.46 4.12 3.53 2.99 2.60 2.32 2.12 1.90 1.69 1.55 1.46 1.31 1.14 0.96 0.86 0.76 0.68 0.59 0.53 0.49 0.47 0.43 0.40 0.40 0.33 0.22 0.18 0.16 0.15 0.15 0.14 0.15 0.15
1.16 1.49 1.81 2.13 2.76 3.35 3.80 4.15 4.46 4.47 4.17 3.64 3.06 2.57 2.27 2.04 1.82 1.61 1.43 1.24 1.10 0.93 0.75 0.61 0.54 0.49 0.45 0.41 0.37 0.32 0.29 0.29 0.29 0.31 0.32 0.25 0.20 0.16 0.13 0.13 0.13 0.12 0.13

GEFSSE_prec_meanprecacc_108.txt.gz
Total_Precipitation_Accumulation
0.02 0.01 0.02 0.02 0.02 0.02 0.01 0.03 0.06 0.10 0.11 0.13 0.15 0.15 0.15 0.13 0.12 0.12 0.11 0.11 0.11 0.15 0.20 0.26 0.28 0.31 0.34 0.33 0.22 0.13 0.10 0.09 0.07 0.06 0.05 0.07 0.09 0.10 0.13 0.12 0.11 0.08 0.05
0.02 0.01 0.02 0.02 0.03 0.03 0.02 0.02 0.05 0.08 0.10 0.11 0.11 0.11 0.12 0.12 0.12 0.13 0.13 0.14 0.15 0.19 0.19 0.21 0.24 0.28 0.28 0.23 0.17 0.10 0.07 0.06 0.08 0.12 0.16 0.21 0.25 0.23 0.24 0.20 0.19 0.15 0.05
0.02 0.01 0.01 0.02 0.03 0.04 0.03 0.03 0.05 0.08 0.12 0.14 0.13 0.11 0.09 0.09 0.09 0.10 0.11 0.14 0.20 0.23 0.22 0.20 0.19 0.20 0.20 0.15 0.10 0.07 0.05 0.07 0.12 0.19 0.38 0.51 0.49 0.41 0.37 0.33 0.31 0.19 0.08
0.02 0.01 0.01 0.01 0.03 0.05 0.05 0.05 0.05 0.08 0.12 0.17 0.18 0.16 0.14 0.11 0.10 0.12 0.12 0.14 0.19 0.22 0.19 0.16 0.13 0.12 0.10 0.07 0.05 0.04 0.05 0.08 0.15 0.27 0.57 0.56 0.51 0.43 0.37 0.36 0.40 0.35 0.25
0.03 0.02 0.01 0.01 0.03 0.06 0.07 0.07 0.09 0.11 0.16 0.20 0.24 0.24 0.19 0.12 0.11 0.14 0.16 0.16 0.18 0.21 0.22 0.17 0.12 0.08 0.05 0.05 0.04 0.03 0.05 0.09 0.19 0.39 0.67 0.77 0.70 0.58 0.43 0.37 0.39 0.42 0.42
0.03 0.02 0.01 0.02 0.03 0.06 0.08 0.10 0.12 0.15 0.19 0.25 0.29 0.28 0.20 0.14 0.12 0.16 0.20 0.22 0.23 0.25 0.29 0.24 0.22 0.14 0.09 0.06 0.05 0.05 0.08 0.15 0.24 0.51 0.73 0.88 0.76 0.62 0.43 0.34 0.32 0.42 0.46
0.04 0.02 0.01 0.03 0.04 0.07 0.09 0.10 0.13 0.17 0.21 0.27 0.32 0.28 0.20 0.15 0.13 0.16 0.22 0.24 0.27 0.29 0.28 0.23 0.21 0.15 0.13 0.12 0.11 0.13 0.18 0.27 0.36 0.56 0.73 0.70 0.70 0.54 0.39 0.34 0.29 0.27 0.32
0.07 0.04 0.02 0.03 0.04 0.11 0.17 0.13 0.12 0.15 0.20 0.26 0.30 0.27 0.20 0.16 0.18 0.22 0.23 0.26 0.28 0.25 0.20 0.18 0.16 0.14 0.16 0.19 0.20 0.22 0.27 0.30 0.31 0.46 0.59 0.63 0.48 0.35 0.36 0.36 0.31 0.25 0.23
0.15 0.11 0.05 0.04 0.03 0.07 0.10 0.10 0.11 0.12 0.17 0.22 0.27 0.30 0.24 0.19 0.26 0.30 0.28 0.29 0.31 0.25 0.19 0.18 0.18 0.15 0.20 0.25 0.21 0.19 0.20 0.19 0.19 0.28 0.43 0.60 0.37 0.29 0.29 0.28 0.24 0.21 0.20
0.37 0.45 0.22 0.13 0.06 0.04 0.04 0.06 0.08 0.10 0.13 0.16 0.17 0.19 0.18 0.20 0.24 0.26 0.23 0.22 0.23 0.17 0.12 0.12 0.13 0.13 0.11 0.09 0.07 0.05 0.06 0.06 0.10 0.18 0.38 0.42 0.36 0.31 0.28 0.24 0.20 0.19 0.20
0.69 0.83 0.60 0.26 0.10 0.07 0.06 0.05 0.07 0.06 0.10 0.09 0.08 0.11 0.14 0.24 0.30 0.28 0.18 0.15 0.11 0.07 0.05 0.04 0.03 0.02 0.01 0.01 0.02 0.03 0.04 0.04 0.12 0.18 0.31 0.38 0.36 0.34 0.34 0.29 0.24 0.21 0.21
0.86 0.82 0.62 0.26 0.18 0.16 0.12 0.10 0.10 0.08 0.09 0.09 0.14 0.12 0.20 0.41 0.46 0.32 0.27 0.15 0.08 0.06 0.04 0.04 0.03 0.03 0.02 0.03 0.03 0.03 0.02 0.05 0.12 0.15 0.22 0.32 0.36 0.39 0.40 0.34 0.27 0.25 0.24
0.83 0.58 0.36 0.32 0.35 0.33 0.25 0.25 0.26 0.24 0.26 0.26 0.30 0.27 0.38 0.44 0.32 0.24 0.27 0.20 0.14 0.11 0.12 0.12 0.07 0.05 0.05 0.07 0.07 0.06 0.06 0.08 0.12 0.13 0.15 0.23 0.31 0.41 0.45 0.41 0.33 0.31 0.31
0.73 0.57 0.47 0.45 0.43 0.48 0.54 0.54 0.63 0.60 0.48 0.41 0.45 0.40 0.51 0.61 0.49 0.46 0.47 0.37 0.35 0.32 0.32 0.24 0.17 0.14 0.12 0.11 0.11 0.15 0.17 0.14 0.15 0.15 0.18 0.21 0.26 0.37 0.46 0.48 0.46 0.45 0.41
0.92 0.81 0.63 0.62 0.57 0.57 0.74 0.74 0.69 0.72 0.61 0.51 0.51 0.52 0.58 0.61 0.59 0.62 0.56 0.58 0.48 0.45 0.41 0.34 0.25 0.25 0.24 0.23 0.21 0.19 0.20 0.23 0.25 0.29 0.27 0.27 0.27 0.33 0.44 0.53 0.56 0.55 0.54
1.25 1.09 0.76 0.67 0.61 0.58 0.60 0.61 0.63 0.60 0.61 0.64 0.67 0.61 0.58 0.66 0.83 0.86 0.77 0.70 0.56 0.52 0.54 0.53 0.46 0.41 0.36 0.36 0.30 0.29 0.30 0.31 0.35 0.40 0.45 0.48 0.42 0.35 0.41 0.52 0.61 0.62 0.64
1.56 1.48 1.06 0.73 0.79 0.79 0.68 0.57 0.55 0.57 0.67 0.70 0.88 0.91 0.76 0.69 0.84 0.92 0.97 0.87 0.73 0.63 0.64 0.60 0.58 0.54 0.52 0.52 0.47 0.41 0.39 0.36 0.36 0.39 0.47 0.52 0.52 0.46 0.47 0.53 0.56 0.61 0.66
2.05 1.85 1.29 0.85 0.95 1.02 0.96 0.85 0.79 0.77 0.79 0.80 0.86 0.97 0.97 0.94 0.95 1.03 1.07 0.99 0.88 0.81 0.89 0.90 0.87 0.81 0.77 0.73 0.70 0.58 0.54 0.50 0.43 0.44 0.50 0.56 0.60 0.60 0.59 0.56 0.54 0.55 0.58
2.64 2.33 1.61 1.24 1.25 1.27 1.26 1.30 1.39 1.43 1.34 1.25 1.18 1.15 1.13 1.19 1.18 1.21 1.28 1.27 1.18 1.20 1.16 1.03 1.08 1.10 1.09 1.00 0.81 0.71 0.62 0.59 0.55 0.52 0.55 0.56 0.59 0.63 0.61 0.55 0.52 0.53 0.58
2.96 2.71 2.19 1.81 1.73 1.64 1.56 1.62 1.73 1.79 1.79 1.79 1.76 1.68 1.56 1.53 1.59 1.68 1.75 1.74 1.63 1.59 1.52 1.48 1.42 1.19 1.02 0.92 0.75 0.69 0.65 0.58 0.54 0.51 0.51 0.47 0.44 0.46 0.53 0.59 0.58 0.55 0.57
2.27 2.27 2.30 2.21 2.11 2.00 1.94 1.93 2.08 2.27 2.33 2.29 2.27 2.17 2.12 2.14 2.22 2.33 2.29 2.22 2.00 1.87 1.77 1.64 1.44 1.23 1.03 0.91 0.87 0.77 0.63 0.51 0.48 0.45 0.45 0.45 0.43 0.40 0.44 0.50 0.49 0.43 0.41
2.05 2.22 2.28 2.18 2.30 2.47 2.67 2.90 3.11 3.30 3.27 3.16 3.08 2.99 2.88 2.81 2.72 2.64 2.53 2.36 2.17 2.02 1.79 1.61 1.48 1.36 1.21 1.05 0.95 0.92 0.76 0.58 0.43 0.35 0.33 0.30 0.29 0.27 0.27 0.28 0.29 0.32 0.34
1.78 2.02 2.16 2.35 2.74 3.16 3.60 4.14 4.47 4.30 4.02 3.89 3.62 3.50 3.31 3.06 2.92 2.82 2.55 2.35 2.16 1.98 1.84 1.66 1.50 1.40 1.24 1.07 0.98 0.97 0.86 0.71 0.52 0.36 0.27 0.24 0.21 0.20 0.20 0.21 0.24 0.26 0.29
1.61 1.97 2.25 2.61 3.10 3.67 4.11 4.54 4.81 4.82 4.58 4.35 3.90 3.53 3.12 2.79 2.62 2.48 2.28 2.07 1.94 1.80 1.64 1.51 1.44 1.33 1.17 0.99 0.84 0.76 0.71 0.64 0.58 0.44 0.28 0.21 0.19 0.20 0.20 0.20 0.22 0.24 0.26
1.44 1.84 2.20 2.55 3.10 3.61 4.08 4.42 4.66 4.75 4.60 4.25 3.65 3.12 2.75 2.46 2.26 2.05 1.83 1.68 1.57 1.44 1.28 1.11 1.02 0.94 0.85 0.72 0.63 0.57 0.53 0.50 0.48 0.47 0.39 0.26 0.21 0.19 0.18 0.18 0.17 0.18 0.18
1.23 1.56 1.90 2.24 2.88 3.48 3.95 4.31 4.59 4.58 4.28 3.75 3.16 2.69 2.42 2.21 2.02 1.81 1.62 1.40 1.25 1.10 0.91 0.75 0.67 0.62 0.58 0.53 0.47 0.39 0.35 0.35 0.34 0.37 0.37 0.30 0.24 0.20 0.17 0.17 0.17 0.17 0.18

GEFSSE_prec_meanprecacc_114.txt.gz
Total_Precipitation_Accumulation
0.03 0.01 0.02 0.02 0.02 0.02 0.01 0.03 0.06 0.10 0.11 0.13 0.15 0.15 0.15 0.13 0.12 0.12 0.11 0.11 0.12 0.15 0.20 0.26 0.28 0.32 0.35 0.33 0.23 0.14 0.11 0.09 0.08 0.06 0.06 0.07 0.09 0.10 0.14 0.12 0.11 0.08 0.05
0.03 0.01 0.02 0.02 0.03 0.03 0.02 0.02 0.05 0.08 0.10 0.11 0.11 0.11 0.12 0.12 0.12 0.13 0.13 0.14 0.15 0.19 0.19 0.21 0.25 0.28 0.28 0.23 0.17 0.11 0.07 0.07 0.09 0.12 0.16 0.21 0.25 0.23 0.24 0.21 0.19 0.15 0.05
0.02 0.01 0.01 0.02 0.03 0.04 0.03 0.03 0.05 0.08 0.12 0.14 0.13 0.11 0.10 0.09 0.09 0.10 0.11 0.14 0.20 0.23 0.22 0.20 0.20 0.20 0.20 0.15 0.10 0.07 0.06 0.08 0.13 0.20 0.39 0.51 0.49 0.41 0.38 0.33 0.31 0.19 0.08
0.03 0.01 0.01 0.01 0.03 0.05 0.05 0.05 0.06 0.09 0.12 0.17 0.18 0.17 0.14 0.11 0.11 0.12 0.12 0.14 0.19 0.22 0.19 0.16 0.13 0.12 0.10 0.07 0.06 0.05 0.06 0.09 0.18 0.29 0.59 0.57 0.51 0.44 0.37 0.36 0.40 0.35 0.26
0.04 0.02 0.01 0.01 0.03 0.06 0.07 0.07 0.09 0.12 0.16 0.20 0.24 0.24 0.19 0.12 0.11 0.14 0.16 0.16 0.18 0.21 0.22 0.18 0.12 0.08 0.05 0.05 0.04 0.04 0.06 0.12 0.23 0.45 0.73 0.80 0.72 0.59 0.43 0.37 0.39 0.42 0.42
0.04 0.02 0.01 0.02 0.03 0.06 0.08 0.10 0.13 0.15 0.19 0.25 0.29 0.28 0.21 0.14 0.13 0.16 0.20 0.22 0.23 0.26 0.30 0.25 0.22 0.14 0.09 0.06 0.05 0.06 0.10 0.18 0.28 0.57 0.81 0.95 0.79 0.64 0.44 0.34 0.33 0.42 0.46
0.05 0.03 0.01 0.03 0.04 0.07 0.09 0.10 0.13 0.17 0.22 0.28 0.32 0.28 0.21 0.15 0.13 0.16 0.22 0.25 0.28 0.30 0.28 0.24 0.21 0.15 0.13 0.12 0.12 0.14 0.19 0.30 0.40 0.62 0.81 0.78 0.73 0.56 0.40 0.34 0.29 0.28 0.32
0.09 0.06 0.03 0.03 0.04 0.12 0.18 0.13 0.12 0.16 0.20 0.27 0.31 0.28 0.20 0.16 0.18 0.22 0.23 0.26 0.29 0.25 0.20 0.19 0.17 0.14 0.16 0.19 0.21 0.23 0.28 0.33 0.35 0.52 0.66 0.69 0.51 0.38 0.37 0.36 0.31 0.25 0.23
0.17 0.13 0.07 0.05 0.04 0.08 0.11 0.11 0.12 0.14 0.18 0.24 0.28 0.31 0.25 0.20 0.27 0.31 0.29 0.29 0.31 0.25 0.19 0.18 0.18 0.15 0.20 0.25 0.22 0.20 0.21 0.23 0.23 0.38 0.52 0.66 0.40 0.32 0.31 0.29 0.25 0.22 0.21
0.48 0.57 0.37 0.23 0.12 0.05 0.05 0.08 0.12 0.14 0.17 0.20 0.20 0.22 0.20 0.21 0.25 0.28 0.24 0.23 0.24 0.18 0.13 0.12 0.13 0.13 0.11 0.10 0.07 0.06 0.07 0.08 0.14 0.27 0.50 0.51 0.41 0.36 0.31 0.26 0.21 0.20 0.21
0.89 1.08 0.76 0.37 0.19 0.14 0.12 0.11 0.12 0.11 0.15 0.14 0.12 0.14 0.18 0.27 0.32 0.31 0.21 0.17 0.12 0.09 0.06 0.05 0.04 0.03 0.02 0.02 0.03 0.04 0.05 0.06 0.16 0.26 0.40 0.44 0.42 0.40 0.38 0.32 0.26 0.24 0.23
1.06 1.10 0.93 0.46 0.36 0.33 0.27 0.22 0.18 0.13 0.13 0.13 0.17 0.15 0.23 0.44 0.50 0.37 0.31 0.19 0.12 0.09 0.07 0.06 0.06 0.04 0.03 0.03 0.04 0.04 0.04 0.08 0.17 0.23 0.28 0.38 0.44 0.45 0.45 0.37 0.29 0.27 0.26
1.00 0.80 0.71 0.60 0.50 0.47 0.41 0.39 0.37 0.31 0.32 0.32 0.35 0.31 0.42 0.49 0.38 0.31 0.34 0.28 0.23 0.18 0.18 0.17 0.10 0.07 0.07 0.09 0.08 0.08 0.09 0.12 0.19 0.19 0.20 0.29 0.37 0.47 0.50 0.45 0.36 0.33 0.33
0.93 0.80 0.78 0.80 0.66 0.64 0.70 0.70 0.77 0.71 0.58 0.49 0.51 0.45 0.58 0.72 0.63 0.60 0.62 0.55 0.55 0.50 0.44 0.33 0.23 0.18 0.16 0.14 0.14 0.19 0.22 0.20 0.21 0.20 0.23 0.27 0.33 0.45 0.52 0.53 0.50 0.47 0.43
1.14 1.05 0.92 0.96 0.92 0.86 0.98 0.97 0.86 0.84 0.70 0.60 0.59 0.60 0.67 0.73 0.77 0.85 0.82 0.90 0.89 0.76 0.60 0.48 0.35 0.34 0.32 0.30 0.29 0.28 0.30 0.34 0.34 0.34 0.32 0.34 0.35 0.40 0.51 0.59 0.60 0.59 0.57
1.50 1.34 1.08 1.02 0.94 0.89 0.92 0.96 0.91 0.83 0.77 0.77 0.81 0.76 0.72 0.82 1.07 1.12 1.08 1.02 0.92 0.84 0.77 0.70 0.61 0.56 0.51 0.50 0.43 0.43 0.43 0.45 0.46 0.48 0.54 0.56 0.48 0.41 0.47 0.58 0.66 0.67 0.69
1.84 1.72 1.37 1.14 1.13 1.05 0.97 0.98 0.91 0.91 1.02 0.98 1.11 1.20 1.03 0.94 1.07 1.18 1.29 1.21 1.06 0.99 0.92 0.82 0.80 0.77 0.71 0.69 0.65 0.58 0.56 0.53 0.47 0.49 0.59 0.65 0.63 0.53 0.52 0.56 0.60 0.65 0.71
2.31 2.14 1.59 1.19 1.27 1.32 1.32 1.25 1.22 1.17 1.19 1.20 1.17 1.29 1.28 1.32 1.27 1.28 1.33 1.24 1.14 1.10 1.19 1.17 1.15 1.11 1.01 0.94 0.91 0.75 0.70 0.64 0.54 0.52 0.59 0.67 0.73 0.70 0.65 0.60 0.57 0.59 0.62
2.86 2.62 1.96 1.64 1.64 1.64 1.68 1.80 1.92 2.01 1.84 1.70 1.61 1.54 1.48 1.52 1.48 1.48 1.55 1.51 1.44 1.48 1.45 1.31 1.33 1.37 1.36 1.24 1.03 0.90 0.78 0.73 0.67 0.62 0.65 0.65 0.69 0.73 0.69 0.60 0.57 0.58 0.63
3.10 2.91 2.46 2.15 2.17 2.01 1.94 2.07 2.23 2.34 2.33 2.31 2.30 2.17 2.00 1.95 1.97 2.01 2.07 2.03 1.87 1.83 1.78 1.76 1.71 1.47 1.26 1.12 0.96 0.90 0.83 0.73 0.67 0.63 0.61 0.57 0.55 0.55 0.62 0.66 0.65 0.61 0.61
2.37 2.41 2.48 2.45 2.44 2.39 2.36 2.41 2.59 2.75 2.78 2.73 2.70 2.67 2.65 2.61 2.61 2.66 2.60 2.53 2.29 2.11 1.99 1.88 1.73 1.53 1.32 1.14 1.07 0.97 0.81 0.67 0.61 0.57 0.56 0.56 0.52 0.49 0.52 0.58 0.55 0.48 0.46
2.12 2.31 2.42 2.35 2.53 2.74 3.03 3.38 3.66 3.83 3.73 3.59 3.49 3.35 3.27 3.20 3.09 2.95 2.84 2.67 2.48 2.26 1.99 1.80 1.67 1.57 1.43 1.26 1.14 1.11 0.92 0.74 0.56 0.46 0.43 0.39 0.36 0.34 0.33 0.33 0.33 0.37 0.38
1.84 2.09 2.25 2.44 2.86 3.32 3.80 4.42 4.83 4.71 4.43 4.26 3.95 3.79 3.54 3.29 3.19 3.09 2.78 2.59 2.42 2.22 2.04 1.83 1.67 1.57 1.43 1.26 1.14 1.12 1.00 0.83 0.64 0.47 0.35 0.31 0.28 0.26 0.25 0.25 0.27 0.30 0.33
1.68 2.05 2.33 2.69 3.20 3.79 4.26 4.70 5.00 5.04 4.84 4.60 4.14 3.73 3.29 2.96 2.78 2.66 2.46 2.23 2.10 1.96 1.80 1.64 1.57 1.45 1.31 1.14 0.98 0.87 0.80 0.71 0.65 0.52 0.33 0.24 0.21 0.22 0.23 0.22 0.24 0.26 0.28
1.53 1.96 2.31 2.63 3.19 3.72 4.19 4.53 4.77 4.88 4.75 4.44 3.83 3.26 2.88 2.59 2.36 2.14 1.93 1.79 1.71 1.56 1.37 1.19 1.10 1.03 0.95 0.84 0.76 0.68 0.63 0.56 0.52 0.50 0.41 0.28 0.22 0.20 0.19 0.20 0.19 0.20 0.21
1.31 1.66 2.00 2.33 2.98 3.61 4.08 4.42 4.68 4.67 4.39 3.90 3.34 2.84 2.55 2.33 2.11 1.89 1.71 1.50 1.35 1.20 1.01 0.83 0.74 0.72 0.72 0.70 0.63 0.55 0.47 0.42 0.39 0.40 0.40 0.32 0.26 0.21 0.19 0.18 0.19 0.19 0.21

GEFSSE_prec_meanprecacc_120.txt.gz
Total_Precipitation_Accumulation
0.04 0.01 0.02 0.02 0.02 0.02 0.01 0.03 0.06 0.10 0.11 0.13 0.15 0.15 0.16 0.13 0.12 0.12 0.11 0.11 0.12 0.15 0.20 0.27 0.29 0.33 0.37 0.35 0.24 0.15 0.12 0.10 0.08 0.06 0.06 0.08 0.09 0.11 0.14 0.13 0.12 0.09 0.06
0.04 0.02 0.02 0.02 0.03 0.03 0.02 0.02 0.05 0.08 0.10 0.11 0.11 0.11 0.12 0.12 0.12 0.13 0.13 0.14 0.16 0.19 0.19 0.21 0.25 0.29 0.29 0.24 0.18 0.11 0.08 0.07 0.09 0.13 0.17 0.22 0.26 0.24 0.24 0.21 0.20 0.16 0.06
0.03 0.02 0.02 0.02 0.03 0.04 0.03 0.03 0.05 0.08 0.12 0.14 0.13 0.11 0.10 0.09 0.10 0.10 0.11 0.14 0.20 0.24 0.22 0.20 0.20 0.21 0.21 0.16 0.11 0.07 0.06 0.08 0.13 0.21 0.40 0.52 0.50 0.43 0.38 0.34 0.32 0.20 0.09
0.04 0.02 0.02 0.02 0.03 0.05 0.05 0.05 0.06 0.09 0.13 0.17 0.18 0.17 0.14 0.11 0.11 0.12 0.12 0.14 0.20 0.22 0.20 0.16 0.14 0.13 0.11 0.08 0.06 0.05 0.06 0.11 0.19 0.30 0.59 0.58 0.52 0.45 0.38 0.37 0.41 0.35 0.26
0.04 0.02 0.02 0.02 0.03 0.06 0.07 0.08 0.09 0.12 0.16 0.20 0.24 0.25 0.19 0.13 0.11 0.14 0.16 0.17 0.18 0.22 0.22 0.18 0.13 0.09 0.06 0.05 0.05 0.05 0.07 0.13 0.25 0.45 0.73 0.81 0.72 0.61 0.44 0.37 0.40 0.43 0.42
0.04 0.03 0.02 0.02 0.03 0.06 0.09 0.10 0.13 0.15 0.19 0.25 0.29 0.29 0.21 0.14 0.13 0.16 0.20 0.22 0.23 0.26 0.30 0.25 0.22 0.15 0.10 0.07 0.06 0.07 0.11 0.20 0.30 0.58 0.81 0.95 0.79 0.65 0.45 0.35 0.33 0.43 0.46
0.06 0.06 0.05 0.04 0.04 0.07 0.10 0.10 0.13 0.17 0.22 0.28 0.32 0.28 0.21 0.15 0.13 0.16 0.22 0.25 0.28 0.30 0.29 0.24 0.21 0.16 0.14 0.13 0.13 0.16 0.23 0.34 0.42 0.64 0.82 0.79 0.74 0.59 0.42 0.35 0.30 0.28 0.33
0.12 0.10 0.07 0.06 0.06 0.13 0.18 0.14 0.12 0.16 0.21 0.27 0.32 0.28 0.21 0.17 0.18 0.22 0.23 0.27 0.29 0.25 0.21 0.19 0.17 0.15 0.16 0.21 0.23 0.25 0.31 0.36 0.36 0.53 0.68 0.71 0.53 0.41 0.40 0.38 0.32 0.26 0.24
0.21 0.17 0.11 0.09 0.08 0.11 0.12 0.12 0.15 0.16 0.20 0.26 0.29 0.32 0.26 0.21 0.27 0.31 0.29 0.30 0.32 0.26 0.20 0.19 0.19 0.16 0.21 0.27 0.24 0.22 0.25 0.25 0.25 0.40 0.54 0.68 0.42 0.35 0.34 0.31 0.26 0.23 0.22
0.54 0.62 0.41 0.28 0.18 0.11 0.10 0.12 0.14 0.16 0.19 0.22 0.23 0.24 0.23 0.23 0.26 0.28 0.25 0.24 0.24 0.19 0.14 0.13 0.14 0.14 0.13 0.12 0.10 0.10 0.12 0.11 0.15 0.29 0.52 0.53 0.44 0.41 0.36 0.29 0.24 0.22 0.22
0.99 1.16 0.84 0.46 0.29 0.24 0.21 0.18 0.18 0.15 0.18 0.16 0.15 0.18 0.22 0.30 0.34 0.32 0.22 0.19 0.14 0.10 0.08 0.07 0.06 0.05 0.04 0.04 0.06 0.08 0.08 0.07 0.17 0.27 0.41 0.47 0.47 0.46 0.44 0.37 0.30 0.26 0.25
1.11 1.15 0.99 0.55 0.50 0.54 0.44 0.33 0.27 0.20 0.18 0.17 0.20 0.18 0.25 0.46 0.52 0.38 0.33 0.20 0.14 0.12 0.10 0.10 0.09 0.07 0.05 0.05 0.06 0.07 0.06 0.08 0.18 0.25 0.31 0.42 0.49 0.53 0.51 0.43 0.34 0.32 0.30
1.07 0.87 0.78 0.67 0.58 0.63 0.59 0.52 0.46 0.38 0.39 0.39 0.42 0.36 0.45 0.51 0.40 0.33 0.36 0.30 0.26 0.21 0.21 0.20 0.13 0.10 0.09 0.10 0.09 0.09 0.10 0.13 0.20 0.21 0.22 0.33 0.42 0.54 0.58 0.51 0.42 0.38 0.37
1.00 0.89 0.87 0.89 0.76 0.76 0.86 0.83 0.87 0.79 0.66 0.56 0.57 0.52 0.63 0.75 0.67 0.63 0.65 0.58 0.59 0.54 0.48 0.36 0.27 0.21 0.17 0.16 0.16 0.21 0.24 0.22 0.24 0.23 0.26 0.32 0.38 0.53 0.62 0.61 0.55 0.52 0.47
1.23 1.15 1.02 1.06 1.03 0.97 1.11 1.12 1.01 0.96 0.81 0.69 0.67 0.68 0.74 0.80 0.84 0.91 0.88 0.97 0.96 0.82 0.64 0.53 0.41 0.38 0.36 0.33 0.32 0.32 0.34 0.38 0.39 0.38 0.36 0.40 0.41 0.46 0.58 0.66 0.67 0.65 0.63
1.58 1.45 1.18 1.12 1.07 1.01 1.06 1.14 1.11 1.01 0.92 0.89 0.92 0.87 0.83 0.92 1.16 1.22 1.18 1.12 1.02 0.92 0.85 0.78 0.70 0.65 0.59 0.57 0.50 0.49 0.49 0.51 0.52 0.54 0.58 0.61 0.53 0.46 0.53 0.65 0.73 0.74 0.76
1.92 1.85 1.55 1.32 1.30 1.23 1.16 1.20 1.14 1.12 1.24 1.18 1.28 1.35 1.18 1.07 1.20 1.30 1.41 1.33 1.19 1.14 1.05 0.93 0.92 0.87 0.81 0.78 0.74 0.68 0.65 0.62 0.55 0.57 0.66 0.72 0.68 0.59 0.58 0.64 0.68 0.74 0.80
2.39 2.27 1.75 1.35 1.45 1.53 1.55 1.50 1.51 1.49 1.51 1.47 1.40 1.49 1.46 1.49 1.45 1.46 1.49 1.38 1.29 1.26 1.34 1.33 1.30 1.25 1.13 1.06 1.03 0.88 0.82 0.77 0.68 0.64 0.70 0.75 0.82 0.79 0.73 0.68 0.65 0.67 0.71
2.90 2.68 2.05 1.75 1.81 1.86 1.92 2.06 2.17 2.27 2.17 2.07 1.93 1.82 1.75 1.79 1.77 1.77 1.81 1.72 1.64 1.67 1.66 1.49 1.49 1.52 1.50 1.38 1.18 1.05 0.94 0.90 0.83 0.74 0.76 0.74 0.79 0.83 0.79 0.69 0.64 0.65 0.69
3.13 2.95 2.52 2.23 2.30 2.24 2.19 2.35 2.49 2.58 2.60 2.63 2.61 2.46 2.28 2.23 2.27 2.34 2.40 2.31 2.13 2.07 2.02 1.99 1.91 1.66 1.46 1.33 1.18 1.09 1.01 0.94 0.88 0.78 0.74 0.68 0.65 0.64 0.72 0.75 0.74 0.69 0.69
2.45 2.49 2.57 2.53 2.54 2.57 2.57 2.61 2.80 3.00 3.06 3.01 3.02 3.00 2.92 2.86 2.89 2.97 2.93 2.85 2.60 2.39 2.23 2.11 1.96 1.76 1.53 1.33 1.28 1.18 0.99 0.85 0.81 0.74 0.69 0.68 0.63 0.58 0.61 0.66 0.62 0.55 0.53
2.20 2.38 2.49 2.44 2.62 2.85 3.17 3.55 3.87 4.09 4.00 3.84 3.75 3.63 3.52 3.44 3.35 3.24 3.16 3.00 2.77 2.55 2.26 2.05 1.92 1.79 1.64 1.45 1.33 1.31 1.11 0.93 0.74 0.61 0.55 0.49 0.45 0.42 0.42 0.41 0.42 0.44 0.44
1.88 2.13 2.31 2.52 2.94 3.41 3.90 4.53 4.98 4.91 4.62 4.45 4.16 4.04 3.77 3.49 3.41 3.38 3.12 2.93 2.74 2.52 2.32 2.07 1.92 1.83 1.64 1.47 1.34 1.30 1.14 0.96 0.79 0.61 0.47 0.39 0.35 0.33 0.31 0.32 0.34 0.38 0.41
1.73 2.09 2.39 2.76 3.27 3.87 4.35 4.80 5.11 5.15 4.95 4.71 4.26 3.89 3.48 3.11 2.92 2.84 2.74 2.55 2.41 2.25 2.06 1.90 1.82 1.71 1.55 1.34 1.17 1.02 0.91 0.80 0.74 0.63 0.46 0.35 0.30 0.29 0.28 0.28 0.29 0.31 0.34
1.59 2.02 2.38 2.71 3.26 3.81 4.31 4.66 4.88 4.98 4.86 4.54 3.93 3.37 3.00 2.70 2.47 2.25 2.09 1.99 1.92 1.80 1.58 1.42 1.37 1.30 1.20 1.07 0.98 0.86 0.75 0.66 0.61 0.58 0.51 0.38 0.32 0.28 0.26 0.25 0.24 0.24 0.24
1.37 1.73 2.07 2.43 3.06 3.70 4.21 4.56 4.80 4.80 4.51 4.00 3.43 2.92 2.64 2.42 2.19 1.98 1.83 1.64 1.50 1.37 1.18 0.99 0.92 0.93 0.94 0.92 0.84 0.74 0.63 0.55 0.50 0.50 0.48 0.41 0.36 0.30 0.25 0.24 0.24 0.23 0.24

GEFSSE_prec_meanprecacc_126.txt.gz
Total_Precipitation_Accumulation
0.04 0.02 0.03 0.03 0.02 0.02 0.02 0.03 0.07 0.11 0.12 0.14 0.15 0.16 0.16 0.14 0.12 0.12 0.11 0.11 0.12 0.16 0.21 0.27 0.30 0.34 0.38 0.36 0.25 0.15 0.12 0.10 0.08 0.06 0.06 0.08 0.10 0.12 0.15 0.13 0.12 0.10 0.07
0.04 0.02 0.03 0.03 0.03 0.03 0.02 0.02 0.06 0.09 0.11 0.11 0.11 0.11 0.12 0.12 0.12 0.13 0.13 0.14 0.16 0.20 0.20 0.22 0.26 0.30 0.30 0.25 0.18 0.12 0.08 0.07 0.10 0.13 0.18 0.23 0.27 0.24 0.25 0.21 0.20 0.16 0.07
0.03 0.03 0.02 0.03 0.04 0.05 0.04 0.04 0.05 0.08 0.12 0.14 0.14 0.12 0.10 0.10 0.10 0.11 0.12 0.15 0.21 0.25 0.23 0.21 0.21 0.22 0.21 0.16 0.11 0.08 0.06 0.08 0.14 0.22 0.40 0.53 0.51 0.43 0.39 0.34 0.32 0.20 0.09
0.04 0.04 0.03 0.03 0.04 0.06 0.05 0.06 0.06 0.09 0.13 0.18 0.19 0.17 0.14 0.11 0.11 0.12 0.13 0.14 0.20 0.23 0.20 0.17 0.14 0.13 0.11 0.08 0.07 0.05 0.07 0.11 0.20 0.30 0.60 0.59 0.53 0.46 0.38 0.37 0.41 0.36 0.26
0.05 0.03 0.03 0.02 0.04 0.07 0.08 0.09 0.09 0.12 0.17 0.21 0.24 0.25 0.19 0.13 0.11 0.15 0.16 0.17 0.18 0.22 0.23 0.19 0.13 0.09 0.07 0.06 0.05 0.05 0.08 0.14 0.26 0.46 0.74 0.82 0.75 0.62 0.45 0.38 0.41 0.43 0.43
0.05 0.05 0.04 0.04 0.04 0.07 0.09 0.11 0.14 0.16 0.20 0.26 0.30 0.29 0.21 0.14 0.13 0.16 0.20 0.23 0.24 0.26 0.30 0.26 0.22 0.15 0.10 0.07 0.07 0.08 0.12 0.22 0.31 0.58 0.82 0.96 0.82 0.67 0.46 0.36 0.34 0.44 0.47
0.08 0.09 0.08 0.07 0.06 0.08 0.10 0.10 0.13 0.18 0.22 0.29 0.33 0.29 0.21 0.16 0.14 0.16 0.22 0.25 0.28 0.31 0.29 0.25 0.22 0.16 0.14 0.14 0.14 0.18 0.25 0.36 0.44 0.64 0.82 0.80 0.77 0.62 0.45 0.38 0.33 0.30 0.34
0.13 0.12 0.09 0.08 0.08 0.13 0.19 0.14 0.13 0.17 0.21 0.28 0.32 0.29 0.21 0.17 0.18 0.22 0.24 0.27 0.30 0.26 0.22 0.20 0.18 0.15 0.17 0.22 0.25 0.28 0.34 0.39 0.37 0.54 0.69 0.73 0.55 0.43 0.43 0.41 0.35 0.28 0.26
0.23 0.19 0.13 0.12 0.11 0.13 0.13 0.13 0.15 0.17 0.21 0.26 0.30 0.33 0.26 0.21 0.28 0.32 0.30 0.30 0.33 0.27 0.21 0.20 0.20 0.17 0.23 0.28 0.26 0.25 0.28 0.29 0.28 0.43 0.57 0.71 0.45 0.38 0.39 0.35 0.29 0.27 0.26
0.56 0.65 0.44 0.31 0.21 0.13 0.11 0.14 0.16 0.17 0.20 0.23 0.24 0.25 0.25 0.25 0.27 0.29 0.27 0.26 0.26 0.21 0.16 0.15 0.17 0.16 0.15 0.15 0.13 0.13 0.15 0.13 0.17 0.31 0.56 0.57 0.46 0.45 0.43 0.35 0.28 0.25 0.26
1.00 1.19 0.89 0.50 0.31 0.26 0.22 0.19 0.20 0.17 0.21 0.19 0.17 0.19 0.24 0.33 0.37 0.35 0.25 0.22 0.18 0.14 0.12 0.11 0.10 0.08 0.07 0.07 0.09 0.12 0.11 0.09 0.19 0.30 0.45 0.50 0.50 0.53 0.54 0.44 0.35 0.31 0.30
1.14 1.18 1.02 0.58 0.54 0.59 0.49 0.39 0.32 0.24 0.22 0.20 0.24 0.21 0.29 0.51 0.58 0.43 0.38 0.25 0.19 0.17 0.16 0.15 0.14 0.11 0.08 0.08 0.10 0.10 0.08 0.11 0.21 0.28 0.35 0.45 0.53 0.59 0.59 0.50 0.41 0.38 0.36
1.11 0.91 0.81 0.71 0.64 0.71 0.67 0.59 0.54 0.46 0.46 0.44 0.47 0.42 0.51 0.57 0.46 0.40 0.43 0.36 0.33 0.29 0.28 0.29 0.21 0.15 0.14 0.16 0.15 0.13 0.14 0.17 0.23 0.24 0.26 0.36 0.46 0.61 0.67 0.59 0.48 0.44 0.42
1.03 0.93 0.93 0.95 0.84 0.86 0.94 0.90 0.96 0.90 0.76 0.63 0.62 0.57 0.69 0.82 0.74 0.70 0.72 0.65 0.68 0.65 0.59 0.46 0.37 0.31 0.26 0.23 0.22 0.26 0.30 0.29 0.30 0.28 0.31 0.35 0.43 0.60 0.70 0.68 0.62 0.58 0.54
1.25 1.17 1.05 1.11 1.09 1.02 1.17 1.19 1.11 1.07 0.91 0.76 0.74 0.74 0.82 0.88 0.92 1.01 0.99 1.08 1.07 0.94 0.75 0.63 0.49 0.48 0.46 0.41 0.39 0.36 0.38 0.43 0.44 0.45 0.42 0.44 0.45 0.53 0.65 0.73 0.74 0.73 0.71
1.60 1.47 1.20 1.16 1.11 1.07 1.13 1.24 1.21 1.11 1.01 0.99 1.01 0.96 0.92 1.02 1.26 1.33 1.29 1.25 1.16 1.05 0.97 0.89 0.78 0.74 0.69 0.67 0.57 0.55 0.55 0.57 0.59 0.62 0.66 0.68 0.58 0.51 0.60 0.73 0.81 0.83 0.84
1.94 1.87 1.58 1.34 1.33 1.28 1.23 1.28 1.23 1.23 1.35 1.30 1.41 1.48 1.31 1.20 1.31 1.42 1.52 1.45 1.32 1.27 1.17 1.05 1.03 0.99 0.91 0.88 0.83 0.77 0.72 0.69 0.63 0.64 0.75 0.82 0.77 0.67 0.66 0.71 0.76 0.82 0.88
2.40 2.29 1.77 1.38 1.49 1.57 1.63 1.61 1.62 1.60 1.64 1.62 1.56 1.65 1.61 1.62 1.56 1.56 1.59 1.47 1.38 1.36 1.45 1.44 1.42 1.36 1.24 1.17 1.14 0.97 0.90 0.85 0.75 0.71 0.78 0.84 0.95 0.92 0.83 0.74 0.72 0.75 0.81
2.92 2.70 2.07 1.78 1.86 1.92 2.00 2.15 2.26 2.37 2.29 2.21 2.10 2.00 1.91 1.95 1.90 1.89 1.94 1.83 1.74 1.77 1.76 1.59 1.60 1.63 1.62 1.50 1.28 1.14 1.02 0.98 0.91 0.83 0.84 0.83 0.90 0.95 0.90 0.78 0.73 0.73 0.79
3.15 2.98 2.54 2.25 2.34 2.29 2.26 2.43 2.57 2.66 2.68 2.73 2.75 2.60 2.42 2.36 2.39 2.45 2.51 2.42 2.22 2.16 2.12 2.10 2.02 1.78 1.58 1.46 1.32 1.23 1.14 1.05 0.97 0.88 0.83 0.77 0.74 0.73 0.81 0.85 0.84 0.78 0.78
2.47 2.52 2.60 2.56 2.58 2.62 2.63 2.67 2.86 3.06 3.14 3.12 3.18 3.16 3.04 2.98 3.00 3.08 3.04 2.95 2.69 2.49 2.35 2.24 2.11 1.90 1.67 1.47 1.44 1.36 1.17 1.02 0.96 0.87 0.81 0.79 0.72 0.67 0.71 0.78 0.72 0.62 0.59
2.22 2.40 2.51 2.46 2.64 2.89 3.21 3.61 3.93 4.15 4.08 3.96 3.89 3.80 3.67 3.57 3.47 3.36 3.28 3.10 2.87 2.66 2.41 2.23 2.10 1.97 1.80 1.60 1.50 1.49 1.29 1.11 0.91 0.77 0.71 0.63 0.58 0.55 0.55 0.55 0.55 0.55 0.53
1.89 2.15 2.33 2.54 2.96 3.43 3.92 4.57 5.03 4.98 4.68 4.53 4.25 4.15 3.91 3.63 3.55 3.53 3.25 3.05 2.85 2.63 2.45 2.23 2.12 2.03 1.82 1.65 1.52 1.49 1.33 1.14 0.95 0.79 0.63 0.55 0.50 0.47 0.44 0.44 0.46 0.50 0.52
1.74 2.11 2.41 2.78 3.28 3.89 4.37 4.83 5.14 5.19 5.00 4.76 4.32 3.96 3.58 3.25 3.06 2.95 2.85 2.66 2.51 2.34 2.17 2.03 1.99 1.90 1.73 1.51 1.34 1.17 1.07 0.96 0.89 0.79 0.62 0.51 0.45 0.42 0.40 0.39 0.40 0.41 0.43
1.61 2.04 2.40 2.73 3.29 3.84 4.35 4.71 4.93 5.05 4.94 4.61 4.00 3.43 3.07 2.78 2.57 2.36 2.19 2.10 2.05 1.90 1.69 1.54 1.51 1.48 1.38 1.26 1.17 1.04 0.91 0.81 0.75 0.71 0.67 0.55 0.49 0.42 0.37 0.34 0.32 0.31 0.31
1.39 1.75 2.11 2.45 3.10 3.74 4.26 4.64 4.88 4.91 4.63 4.08 3.51 2.99 2.69 2.47 2.25 2.05 1.91 1.73 1.60 1.48 1.30 1.11 1.03 1.07 1.11 1.09 1.04 0.94 0.80 0.72 0.67 0.64 0.63 0.56 0.51 0.45 0.38 0.34 0.31 0.29 0.28

GEFSSE_prec_meanprecacc_132.txt.gz
Total_Precipitation_Accumulation
0.04 0.02 0.03 0.03 0.03 0.02 0.02 0.03 0.07 0.11 0.12 0.14 0.16 0.16 0.16 0.14 0.12 0.12 0.11 0.11 0.12 0.16 0.21 0.27 0.30 0.35 0.38 0.36 0.25 0.16 0.12 0.10 0.08 0.07 0.06 0.08 0.10 0.12 0.15 0.14 0.14 0.10 0.07
0.04 0.02 0.03 0.04 0.04 0.05 0.03 0.03 0.06 0.09 0.11 0.12 0.11 0.12 0.12 0.12 0.12 0.13 0.13 0.14 0.17 0.21 0.21 0.23 0.27 0.30 0.31 0.25 0.19 0.12 0.08 0.07 0.10 0.13 0.18 0.23 0.27 0.24 0.26 0.22 0.22 0.17 0.07
0.04 0.03 0.03 0.04 0.05 0.07 0.05 0.04 0.06 0.09 0.13 0.14 0.14 0.12 0.10 0.10 0.10 0.11 0.12 0.15 0.21 0.25 0.24 0.22 0.22 0.22 0.22 0.17 0.12 0.08 0.07 0.08 0.14 0.22 0.41 0.53 0.51 0.43 0.39 0.34 0.33 0.21 0.10
0.05 0.04 0.03 0.03 0.05 0.07 0.07 0.08 0.08 0.11 0.14 0.18 0.19 0.17 0.14 0.12 0.11 0.12 0.13 0.15 0.21 0.24 0.21 0.18 0.15 0.14 0.12 0.09 0.07 0.06 0.07 0.11 0.20 0.32 0.65 0.62 0.54 0.46 0.39 0.38 0.42 0.36 0.27
0.06 0.04 0.03 0.03 0.05 0.08 0.09 0.10 0.12 0.15 0.19 0.22 0.25 0.25 0.20 0.13 0.12 0.15 0.17 0.17 0.19 0.23 0.24 0.20 0.14 0.09 0.07 0.06 0.06 0.06 0.08 0.14 0.27 0.49 0.80 0.88 0.79 0.64 0.45 0.38 0.41 0.43 0.43
0.06 0.06 0.04 0.05 0.05 0.08 0.10 0.12 0.16 0.19 0.22 0.27 0.31 0.30 0.22 0.15 0.14 0.17 0.21 0.23 0.24 0.27 0.32 0.27 0.23 0.16 0.11 0.08 0.07 0.09 0.13 0.22 0.32 0.61 0.87 1.00 0.85 0.69 0.47 0.36 0.35 0.44 0.48
0.10 0.11 0.09 0.07 0.06 0.09 0.10 0.11 0.15 0.20 0.25 0.31 0.36 0.31 0.23 0.17 0.15 0.17 0.23 0.26 0.29 0.32 0.31 0.26 0.22 0.17 0.15 0.15 0.15 0.18 0.25 0.37 0.46 0.69 0.89 0.84 0.81 0.64 0.46 0.39 0.34 0.31 0.36
0.14 0.13 0.10 0.08 0.08 0.14 0.19 0.15 0.15 0.19 0.24 0.31 0.36 0.32 0.24 0.19 0.20 0.24 0.25 0.29 0.31 0.28 0.23 0.21 0.19 0.16 0.18 0.22 0.25 0.28 0.34 0.39 0.39 0.56 0.72 0.78 0.59 0.45 0.44 0.42 0.37 0.30 0.28
0.24 0.20 0.14 0.13 0.11 0.13 0.14 0.14 0.17 0.19 0.23 0.29 0.34 0.37 0.30 0.24 0.30 0.34 0.33 0.34 0.36 0.29 0.23 0.22 0.22 0.18 0.23 0.29 0.26 0.25 0.28 0.29 0.29 0.44 0.58 0.75 0.47 0.39 0.40 0.36 0.30 0.28 0.27
0.57 0.66 0.45 0.32 0.21 0.14 0.12 0.14 0.17 0.19 0.22 0.26 0.27 0.28 0.27 0.27 0.29 0.32 0.29 0.30 0.30 0.23 0.19 0.17 0.19 0.18 0.16 0.15 0.14 0.13 0.16 0.14 0.18 0.32 0.59 0.61 0.48 0.48 0.46 0.38 0.30 0.27 0.28
1.03 1.23 0.92 0.53 0.34 0.27 0.24 0.21 0.21 0.18 0.22 0.21 0.19 0.21 0.27 0.37 0.44 0.42 0.28 0.26 0.21 0.17 0.15 0.14 0.12 0.11 0.08 0.08 0.10 0.13 0.12 0.10 0.22 0.35 0.55 0.58 0.54 0.57 0.57 0.47 0.38 0.35 0.33
1.20 1.26 1.09 0.70 0.68 0.66 0.59 0.50 0.38 0.29 0.27 0.24 0.30 0.28 0.37 0.63 0.72 0.54 0.49 0.33 0.25 0.22 0.20 0.18 0.17 0.14 0.09 0.10 0.12 0.12 0.09 0.12 0.29 0.42 0.52 0.63 0.64 0.66 0.62 0.53 0.43 0.41 0.38
1.19 1.01 0.88 0.80 0.76 0.83 0.81 0.77 0.66 0.57 0.60 0.56 0.59 0.57 0.67 0.74 0.62 0.53 0.61 0.51 0.45 0.37 0.35 0.36 0.25 0.18 0.18 0.21 0.22 0.19 0.19 0.25 0.32 0.40 0.46 0.56 0.62 0.70 0.72 0.62 0.51 0.46 0.45
1.13 1.06 1.01 1.05 0.93 0.96 1.09 1.05 1.07 1.01 0.89 0.77 0.79 0.74 0.89 1.01 0.92 0.91 0.93 0.86 0.89 0.85 0.77 0.64 0.49 0.39 0.32 0.29 0.29 0.34 0.38 0.37 0.43 0.47 0.55 0.59 0.63 0.71 0.76 0.72 0.65 0.62 0.58
1.36 1.28 1.13 1.16 1.14 1.09 1.27 1.33 1.25 1.23 1.07 0.90 0.86 0.88 0.98 1.06 1.12 1.25 1.22 1.30 1.29 1.18 0.99 0.84 0.66 0.62 0.57 0.49 0.45 0.41 0.45 0.51 0.56 0.64 0.64 0.61 0.58 0.62 0.73 0.81 0.80 0.79 0.77
1.70 1.53 1.26 1.21 1.18 1.14 1.22 1.36 1.37 1.28 1.19 1.14 1.16 1.09 1.07 1.19 1.45 1.53 1.50 1.44 1.35 1.25 1.21 1.12 0.98 0.94 0.87 0.81 0.69 0.66 0.65 0.66 0.69 0.75 0.83 0.85 0.68 0.59 0.67 0.82 0.91 0.92 0.92
2.00 1.92 1.62 1.38 1.37 1.34 1.30 1.36 1.33 1.35 1.49 1.43 1.52 1.57 1.39 1.29 1.45 1.57 1.70 1.61 1.50 1.46 1.42 1.30 1.25 1.22 1.12 1.07 1.02 0.95 0.89 0.82 0.75 0.79 0.91 0.98 0.91 0.80 0.75 0.80 0.85 0.91 0.97
2.44 2.33 1.81 1.42 1.54 1.62 1.70 1.68 1.70 1.70 1.76 1.74 1.64 1.73 1.69 1.71 1.67 1.68 1.72 1.63 1.55 1.54 1.65 1.66 1.63 1.58 1.48 1.41 1.36 1.18 1.11 1.04 0.91 0.87 0.93 1.00 1.11 1.06 0.93 0.81 0.79 0.83 0.88
2.95 2.75 2.12 1.82 1.90 1.97 2.07 2.22 2.33 2.45 2.38 2.30 2.19 2.09 2.00 2.05 2.02 2.01 2.07 1.99 1.90 1.95 1.94 1.78 1.81 1.84 1.85 1.73 1.48 1.33 1.21 1.19 1.13 1.01 1.01 0.98 1.05 1.09 1.01 0.86 0.80 0.80 0.87
3.18 3.01 2.58 2.29 2.38 2.34 2.32 2.51 2.64 2.73 2.76 2.82 2.84 2.69 2.52 2.46 2.50 2.58 2.64 2.58 2.39 2.34 2.34 2.34 2.26 1.98 1.80 1.69 1.52 1.43 1.32 1.22 1.16 1.06 1.01 0.95 0.91 0.87 0.96 0.98 0.94 0.85 0.85
2.48 2.54 2.62 2.59 2.61 2.66 2.68 2.74 2.92 3.12 3.19 3.18 3.24 3.23 3.11 3.05 3.09 3.19 3.17 3.09 2.84 2.64 2.53 2.47 2.36 2.14 1.88 1.69 1.66 1.57 1.36 1.20 1.14 1.05 0.98 0.97 0.88 0.80 0.84 0.90 0.83 0.72 0.69
2.24 2.42 2.54 2.49 2.68 2.92 3.26 3.69 4.02 4.23 4.14 4.03 3.96 3.86 3.73 3.63 3.54 3.45 3.39 3.21 2.99 2.79 2.56 2.41 2.32 2.21 2.02 1.82 1.69 1.70 1.48 1.28 1.06 0.93 0.89 0.82 0.74 0.69 0.69 0.67 0.67 0.69 0.66
1.90 2.17 2.35 2.57 2.99 3.46 3.97 4.66 5.13 5.05 4.74 4.58 4.31 4.21 3.99 3.70 3.62 3.61 3.34 3.14 2.94 2.74 2.57 2.37 2.29 2.25 2.04 1.89 1.76 1.73 1.55 1.35 1.13 0.96 0.81 0.72 0.68 0.63 0.60 0.59 0.59 0.63 0.65
1.75 2.11 2.42 2.80 3.32 3.93 4.41 4.87 5.19 5.23 5.04 4.82 4.37 4.01 3.62 3.30 3.11 3.01 2.91 2.73 2.59 2.42 2.25 2.11 2.11 2.07 1.92 1.73 1.59 1.41 1.29 1.18 1.11 1.00 0.83 0.71 0.66 0.63 0.60 0.56 0.54 0.54 0.58
1.61 2.04 2.41 2.75 3.32 3.88 4.40 4.76 4.97 5.09 4.99 4.68 4.07 3.49 3.12 2.84 2.62 2.41 2.24 2.15 2.10 1.97 1.76 1.61 1.59 1.58 1.52 1.42 1.36 1.24 1.13 1.04 0.97 0.92 0.86 0.75 0.68 0.60 0.54 0.51 0.48 0.45 0.45
1.39 1.76 2.12 2.47 3.12 3.77 4.30 4.69 4.92 4.95 4.68 4.14 3.56 3.04 2.74 2.52 2.29 2.10 1.97 1.79 1.67 1.53 1.35 1.17 1.10 1.15 1.20 1.22 1.18 1.11 0.97 0.89 0.84 0.82 0.81 0.73 0.68 0.63 0.56 0.52 0.48 0.43 0.40